Regional Weather Roundup
Issued by NWS

Home | Current Version | Previous Version | Text Only | Print | Product List | Glossary Off
Versions: 1 2 3 4 5 6 7 8 9 10 11 12 13 14 15 16 17 18 19 20 21 22 23 24 25 26 27 28 29 30 31 32 33 34 35 36 37 38 39 40 41 42 43 44 45 46 47 48 49 50

000
ASUS45 KBOU 211007
RWRCO

WEATHER ROUNDUP FOR COLORADO
NATIONAL WEATHER SERVICE DENVER/BOULDER CO
400 AM MDT MON JUL 21 2014

NOTE: "FAIR" INDICATES FEW OR NO CLOUDS BELOW 12000 FEET WITH NO
SIGNIFICANT WEATHER AND/OR OBSTRUCTIONS TO VISIBILITY.

COZ001>005-013-030-031-211100-
...NORTHWEST COLORADO...

CITY           SKY/WX    TMP DP  RH WIND       PRES   REMARKS
CRAIG          CLEAR     44  44 100 CALM      30.22S
HAYDEN         CLEAR     55  43  62 E12       30.24S
MEEKER         CLEAR     51  43  74 E3        30.23R
MOUNT WERNER   CLEAR     57  32  38 S15       30.54R
STEAMBOAT SPGS CLEAR     53  44  72 CALM      30.27R
WALDEN         PTCLDY    45  37  76 E8        30.34F
$$

COZ006>008-011-211100-
...WEST CENTRAL VALLEYS...

CITY           SKY/WX    TMP DP  RH WIND       PRES   REMARKS
GRAND JUNCTION CLEAR     67  45  45 E12       30.09S
MONTROSE       CLEAR     62  44  51 S7        30.21R
EAGLE          CLEAR     52  46  82 CALM      30.33R
RIFLE          CLEAR     57  45  64 SE6       30.19R
DELTA          CLEAR     66  47  51 NE7       30.16S
NUCLA          CLEAR     64  36  34 E10       30.23S
$$

COZ017>023-064>068-211100-
...SOUTHWEST COLORADO...

CITY           SKY/WX    TMP DP  RH WIND       PRES   REMARKS
DURANGO        MOCLDY    63  44  50 N3        30.29R
CORTEZ         CLEAR     53  39  59 CALM      30.22S
PAGOSA SPRINGS MOCLDY    58  47  68 CALM      30.39R
TELLURIDE      PTCLDY    57  36  44 SE5       30.47R
WOLF CREEK PAS NOT AVBL
$$

COZ009-010-012-014-032>034-037-058>063-211100-
...CENTRAL COLORADO...

CITY           SKY/WX    TMP DP  RH WIND       PRES   REMARKS
ASPEN          CLEAR     49  44  83 CALM      30.35S
BUENA VISTA    PTCLDY    53  44  73 NW9       30.40R
COPPER MTN     CLEAR     54  32  43 S17       30.68R
BERTHOUD PASS  FAIR      46  32  57 W16       30.70R
COTTONWOOD PAS PTCLDY    59  36  41 W3        30.51S
GUNNISON       PTCLDY    46  39  76 CALM      30.42S
KREMMLING      CLEAR     45  41  87 CALM      30.36S
LEADVILLE      PTCLDY    40  39  97 NE5       30.52S
MONARCH PASS   MOCLDY    48  36  61 SW16      30.77S
SALIDA         PTCLDY   N/A N/A N/A NW8       30.43S
SUNLIGHT       CLEAR     54  39  58 CALM      30.57S
WILKERSON PASS NOT AVBL
$$

COZ069>075-211100-
...SAN LUIS VALLEY/SANGRE DE CRISTO MOUNTAINS...

CITY           SKY/WX    TMP DP  RH WIND       PRES   REMARKS
ALAMOSA        CLOUDY    57  53  86 N5        30.36S
LA VETA PASS   MOCLDY    54  41  62 SW13G23   30.52S
SAGUACHE       MOCLDY    55  43  62 NW6       30.40R
$$

COZ035-036-038>040-211100-
...NORTHERN COLORADO FRONT RANGE...

CITY           SKY/WX    TMP DP  RH WIND       PRES   REMARKS
DENVER INTL AP PTCLDY    69  45  41 SW10      30.09S
DMNS CITY PARK   N/A     69  46  42 S3        30.10R
AURORA         MOCLDY    67  46  46 SW10      30.13R
FRONT RANGE AP NOT AVBL
ERIE MUNI ARPT MOCLDY    60  50  68 CALM      30.07S
BOULDER MUN AP MOCLDY    66  45  45 CALM      30.07S
CENTENNIAL     MOCLDY    68  44  42 SW8       30.14S
BROOMFIELD     MOCLDY    68  43  40 W3        30.12R
FORT COLLINS   PTCLDY    61  52  72 CALM      30.07R
LONGMONT       PTCLDY    60  51  73 CALM      30.08S
$$

COZ041-046-047-076>085-087-088-211100-
...PIKES PEAK/PALMER DIVIDE AND SOUTHERN FOOTHILLS...

CITY           SKY/WX    TMP DP  RH WIND       PRES   REMARKS
COLO. SPRINGS  MOCLDY    65  48  54 N8        30.17S
A. F. ACADEMY  MOCLDY    59  46  63 N6        30.21R
ELLICOTT       MOCLDY    66  51  58 NE7       30.15S
FALCON         MOCLDY    60  46  59 W6        30.23S
FORT CARSON    MOCLDY    66  48  52 NW8       30.14S
LIMON          MOCLDY    58  50  75 N6        30.11R
MONUMENT HILL  PTCLDY    61  41  48 W9        30.24R
TRINIDAD       MOCLDY    69  48  47 W14       30.16R
$$

COZ042>045-048>051-090-091-211100-
...NORTHEAST COLORADO...

CITY           SKY/WX    TMP DP  RH WIND       PRES   REMARKS
GREELEY ARPT   PTCLDY    59  52  77 CALM      30.05S
AKRON          MOCLDY    72  48  42 W9        30.02S
BURLINGTON     CLOUDY    70  57  63 SW9       30.00F
WRAY             N/A     74  51  44 W9        29.96R
STERLING       MOCLDY    64  57  77 S5        29.98R
HOLYOKE        CLOUDY    73  54  49 S9        29.95R
FORT MORGAN    MOCLDY    62  52  70 W8        30.03R
$$

COZ086-089-092>099-211100-
...SOUTHEAST COLORADO...

CITY           SKY/WX    TMP DP  RH WIND       PRES   REMARKS
PUEBLO         MOCLDY    72  52  49 CALM      30.06R
LA JUNTA       PTCLDY    72  55  55 W13       30.01R
LAMAR          CLEAR     73  63  70 S10       29.95F
SPRINGFIELD      N/A     71  62  73 S14       30.04F
$$



USA.gov is the U.S. government's official web portal to all federal, state and local government web resources and services.